Tracking 25648 objects as of 16-May-2022
HD Live streaming from Space Station
objects crossing your sky now

COSMOS 2251 DEB

Track COSMOS 2251 DEB now!
10-day predictions


NORAD ID: 39111
Int'l Code: 1993-036BUA
Perigee: 718.2 km
Apogee: 750.4 km
Inclination: 74.0 °
Period: 99.3 minutes
Semi major axis: 7105 km
RCS: 0.003 m2 (small)
Launch date: June 16, 1993
Source: Commonwealth of Independent States (former USSR) (CIS)
Launch site: PLESETSK MISSILE AND SPACE COMPLEX (PKMTR)

Note: This is SATELLITE DEBRIS
aabbcc
Your satellite tracking list
Your tracking list is empty




NASA's NSSDC Master Catalog

Two Line Element Set (TLE):
1 39111U 93036BUA 22134.44437300  .00005011  00000-0  13082-2 0  9996
2 39111  74.0352  51.9865 0022662  80.1426 280.2292 14.49550705459295
Source of the keplerian elements: AFSPC